Location: Chandler Mountain
(33.9167°N, 86.2833°W)
Time: 07:16:55
(UTC-05:00)

ISS - Visible Passes

Search period start: 23 March 2019 00:00
Search period end: 02 April 2019 00:00
Orbit: 406 x 411 km, 51.6° (Epoch: 23 March)

Date Brightness Start Highest point End Pass type
(mag) Time Alt. Az. Time Alt. Az. Time Alt. Az.
23 Mar -0.9 20:31:48 10° WNW 20:33:33 14° NNW 20:35:18 10° N visible
24 Mar -1.4 19:39:38 10° W 19:42:16 22° NW 19:44:54 10° NNE visible
26 Mar -0.7 19:36:00 10° NW 19:36:58 11° NNW 19:37:56 10° N visible
